Location: Narrabri
(30.3170°S, 149.7830°E)
Time: 01:53:16
(UTC+10:00)

Hubble Space Telescope - Visible Passes

Search period start: 23 May 2018 00:00
Search period end: 02 June 2018 00:00
Orbit: 537 x 541 km, 28.5° (Epoch: 21 May)

Date Brightness Start Highest point End Pass type
(mag) Time Alt. Az. Time Alt. Az. Time Alt. Az.
23 May 1.8 18:11:16 10° NW 18:15:04 35° NNE 18:17:26 19° ENE visible
23 May 3.7 19:51:57 10° WNW 19:52:47 15° WNW 19:52:47 15° WNW visible
24 May 1.6 18:00:46 10° NW 18:04:42 41° NNE 18:07:42 16° E visible
24 May 3.3 19:41:37 10° W 19:43:03 21° WNW 19:43:03 21° WNW visible
25 May 1.4 17:50:20 10° WNW 17:54:20 48° NNE 17:57:58 12° E visible
25 May 2.8 19:31:17 10° W 19:33:19 27° WNW 19:33:19 27° WNW visible
26 May 1.3 17:39:56 10° WNW 17:44:00 55° N 17:48:04 10° E visible
26 May 2.2 19:20:58 10° W 19:23:36 37° WNW 19:23:36 37° WNW visible
27 May 1.2 17:29:33 10° WNW 17:33:39 60° N 17:37:46 10° E visible
27 May 1.6 19:10:39 10° W 19:13:54 49° WNW 19:13:54 49° WNW visible
28 May 1.1 19:00:21 10° W 19:04:14 59° NNW 19:04:14 59° NNW visible
29 May 1.2 18:50:02 10° W 18:54:06 54° N 18:54:37 50° NNE visible
30 May 1.5 18:39:45 10° W 18:43:46 47° NNW 18:45:06 34° NE visible
31 May 1.8 18:29:28 10° W 18:33:24 41° NNW 18:35:40 21° NE visible
01 Jun 2.2 18:19:14 10° W 18:23:02 34° NNW 18:26:23 12° NE visible
